Location: Pensacola
(30.4142°N, 87.2155°W)
Time: 04:07:01
(UTC-05:00)

Hubble Space Telescope - Pass Details

Date: 05 February 2023
Orbit: 526 x 530 km, 28.5° (Epoch: 01 April)

Event Time Altitude Azimuth Distance (km) Brightness Sun altitude
Exits shadow 04:50:16 12° 185° (S) 1,638 3.2 -23.4°
Drops below altitude 10° 04:51:00 10° 175° (S) 1,761 3.5 -23.2°
Sets 04:54:13 0° 148° (SSE) 2,649 4.8 -22.6°
